TimeHST,TemperatureF,Dew PointF,Humidity,Sea Level PressureIn,VisibilityMPH,Wind Direction,Wind SpeedMPH,Gust SpeedMPH,PrecipitationIn,Events,Conditions,WindDirDegrees,DateUTC
12:56 AM,73.0,61.0,66,30.02,10.0,East,3.5,-,N/A,,Clear,80,2013-09-23 10:56:00
1:56 AM,75.0,59.0,57,30.01,10.0,NE,3.5,-,N/A,,Clear,40,2013-09-23 11:56:00
2:56 AM,72.0,61.0,68,30.00,10.0,East,4.6,-,N/A,,Clear,80,2013-09-23 12:56:00
3:56 AM,75.0,63.0,66,29.99,10.0,NE,4.6,-,N/A,,Clear,40,2013-09-23 13:56:00
4:56 AM,72.0,60.1,66,30.00,10.0,Calm,Calm,-,N/A,,Clear,0,2013-09-23 14:56:00
5:56 AM,72.0,60.1,66,30.01,10.0,East,5.8,-,N/A,,Clear,80,2013-09-23 15:56:00
6:56 AM,72.0,60.1,66,30.02,10.0,ENE,3.5,-,N/A,,Partly Cloudy,70,2013-09-23 16:56:00
7:56 AM,80.1,61.0,52,30.03,10.0,Calm,Calm,-,N/A,,Clear,0,2013-09-23 17:56:00
8:56 AM,80.1,66.9,64,30.04,10.0,SW,6.9,-,N/A,,Clear,230,2013-09-23 18:56:00
9:56 AM,84.0,66.9,56,30.04,10.0,NNW,10.4,-,N/A,,Clear,340,2013-09-23 19:56:00
10:56 AM,84.0,66.0,55,30.02,10.0,NNW,5.8,-,N/A,,Clear,330,2013-09-23 20:56:00
11:56 AM,84.0,66.9,56,30.01,10.0,NW,6.9,-,N/A,,Scattered Clouds,320,2013-09-23 21:56:00
12:56 PM,84.0,66.9,56,29.99,10.0,NW,5.8,-,N/A,,Mostly Cloudy,310,2013-09-23 22:56:00
1:56 PM,84.0,68.0,58,29.96,10.0,West,4.6,-,N/A,,Clear,270,2013-09-23 23:56:00
2:56 PM,84.9,70.0,61,29.94,10.0,WNW,8.1,-,N/A,,Partly Cloudy,300,2013-09-24 00:56:00
3:56 PM,84.0,68.0,58,29.94,10.0,WNW,3.5,-,N/A,,Overcast,290,2013-09-24 01:56:00
4:56 PM,84.0,68.0,58,29.94,10.0,SSW,6.9,-,N/A,,Clear,210,2013-09-24 02:56:00
5:56 PM,82.9,69.1,63,29.95,10.0,SSW,5.8,-,N/A,,Overcast,200,2013-09-24 03:56:00
6:56 PM,82.0,70.0,67,29.96,10.0,WSW,6.9,-,N/A,,Overcast,240,2013-09-24 04:56:00
7:56 PM,81.0,71.1,72,29.98,10.0,West,4.6,-,N/A,,Overcast,260,2013-09-24 05:56:00
8:56 PM,81.0,71.1,72,29.99,10.0,Calm,Calm,-,N/A,,Overcast,0,2013-09-24 06:56:00
9:56 PM,81.0,71.1,72,29.99,10.0,Calm,Calm,-,N/A,,Overcast,0,2013-09-24 07:56:00
10:56 PM,81.0,72.0,74,29.99,10.0,WNW,3.5,-,N/A,,Overcast,300,2013-09-24 08:56:00
11:56 PM,79.0,71.1,77,29.99,10.0,Calm,Calm,-,N/A,,Partly Cloudy,0,2013-09-24 09:56:00